Regional Weather Roundup
Issued by NWS Huntsville, AL

Home | Current Version | Previous Version | Text Only | Print | Product List | Glossary On
Versions: 1 2 3 4 5 6 7 8 9 10 11 12 13 14 15 16 17 18 19 20 21 22 23 24 25 26 27 28 29 30 31 32 33 34 35 36 37 38 39 40 41 42 43 44 45 46 47 48 49 50
000
ASUS44 KHUN 200610
RWRHUN

WEATHER ROUNDUP FOR THE TENNESSEE VALLEY
NATIONAL WEATHER SERVICE HUNTSVILLE AL
1200 AM CST FRI JAN 20 2017

ALZ001>004-200700-
NORTHWEST ALABAMA

CITY           SKY/WX    TMP DP  RH WIND       PRES   REMARKS
COURTLAND HCN    N/A     55 N/A N/A S7          N/A
RUSSELLVILLE     N/A     54 N/A N/A MISG        N/A
SHOALS AIRPORT CLEAR     56  54  93 S6        29.74F
6HR MIN TEMP:  55; 6HR MAX TEMP:  61; 6HR PCP:  0.43;

SHOALS TVA RES   N/A     55 N/A N/A MISG        N/A
$$

ALZ005>007-016-200700-
NORTH CENTRAL ALABAMA

CITY           SKY/WX    TMP DP  RH WIND       PRES   REMARKS
CULLMAN AG STN   N/A     57 N/A N/A SW7         N/A
DECATUR AP     CLOUDY    59  59 100 S8        29.74F
6HR MIN TEMP:  58; 6HR MAX TEMP:  62; 6HR PCP:  0.20;

HUNTSVILLE AP  CLOUDY    61  60  97 S8        29.74R
6HR MIN TEMP:  60; 6HR MAX TEMP:  63; 6HR PCP:  0.58;

MERIDIANVILLE  CLOUDY    59  57  94 S10       29.75R
REDSTONE ARSN  CLOUDY    59  58  97 W5        29.74S
VINEMONT AP    DRIZZLE   56  56  97 CALM      29.78S
$$

ALZ008>010-200700-
NORTHEAST ALABAMA

CITY           SKY/WX    TMP DP  RH WIND       PRES   REMARKS
ALBERTVILLE    CLOUDY    61  61 100 S12G18    29.76S
FORT PAYNE     CLOUDY    59  54  82 W7        29.76F
SCOTTSBORO AP  LGT RAIN  63  63 100 SW7       29.75R
SCOTTSBORO HCN   N/A     61 N/A N/A MISG        N/A
VALLEY HEAD      N/A     55 N/A N/A MISG        N/A
$$

TNZ076-096-097-200700-
SOUTHEASTERN MIDDLE TENNESSEE

CITY           SKY/WX    TMP DP  RH WIND       PRES   REMARKS
TULLAHOMA      CLOUDY    57  57 100 SW7       29.73R
WINCHESTER     CLOUDY    59  57  94 S3        29.72S
$$

...SURROUNDING SITES...

CITY           SKY/WX    TMP DP  RH WIND       PRES   REMARKS
ATLANTA        LGT RAIN  63  62  97 S8        29.84F
ANNISTON       CLOUDY    62  61  96 CALM      29.79F
BIRMINGHAM     CLOUDY    63  60  90 S17       29.79F
CHATTANOOGA    LGT RAIN  55  53  93 CALM      29.76F FOG
CORINTH        CLOUDY    55  55 100 SW7G15    29.73S
DALTON         CLOUDY    54  54 100 S5        29.79F
GADSDEN        CLOUDY    63  61  94 SW9       29.78F
GOLDEN TRNGL   CLOUDY    59  55  88 SW7       29.72S VSB 1/4
HALEYVILLE     CLOUDY    55  54  96 S5        29.77F
JACKSON TN     CLOUDY    57  57 100 SW9       29.71R
MEMPHIS        CLOUDY    57  55  93 S9        29.72F
NASHVILLE      CLOUDY    57  55  93 CALM      29.69S
OXFORD MS      CLOUDY    54  54 100 SW6       29.77F
ROME           CLOUDY    57  54  89 CALM      29.77F
SAVANNAH       CLEAR     55  55 100 S6        29.71S
TUPELO         CLOUDY    56  54  93 S6        29.74F
TUSCALOOSA     CLEAR     62  61  96 SW9       29.78F
$$

...GULF COAST WEATHER...

CITY           SKY/WX    TMP DP  RH WIND       PRES   REMARKS
GULFPORT       PTCLDY    64  64 100 S3        29.83S
PASCAGOULA     CLOUDY    63  62  97 CALM      29.84S FOG
MOBILE         CLOUDY    64  63  96 S8        29.84F
GULF SHORES    MOCLDY    63  63 100 E6        29.84F
PENSACOLA      CLOUDY    64  63  96 SW3       29.84S
DESTIN         CLOUDY    69  50  51 S13G20    29.84F
PANAMA CITY    TSTM      64  63  94 S9        29.92R
APPALACHICOLA  MOCLDY    68  68 100 S6        29.91F
$$




USA.gov is the U.S. government's official web portal to all federal, state and local government web resources and services.